Weather reports worldwide

Advertisment
Kinlochewe, United Kingdom (99092): temperature & dewpoint: 18.06.2017 04:00:00 - 24.06.2017 04:00:00 (BST)Kinlochewe, United Kingdom (99092): temperature 5cm: 18.06.2017 04:00:00 - 24.06.2017 04:00:00 (BST)Kinlochewe, United Kingdom (99092): temperature -20cm: 18.06.2017 04:00:00 - 24.06.2017 04:00:00 (BST)Kinlochewe, United Kingdom (99092): wind speed: 18.06.2017 04:00:00 - 24.06.2017 04:00:00 (BST)Kinlochewe, United Kingdom (99092): wind direction: 18.06.2017 04:00:00 - 24.06.2017 04:00:00 (BST)Kinlochewe, United Kingdom (99092): visibility: 18.06.2017 04:00:00 - 24.06.2017 04:00:00 (BST)Kinlochewe, United Kingdom (99092): precipitation: 18.06.2017 04:00:00 - 24.06.2017 04:00:00 (BST)
Date & Time tt [°C] td [°C] tt 5cm [°C] tt -20cm [°C] ff [km/h] ff [kn] dd vv [km] rr [mm]
24.06.2017 04:00:00 - - - - - - - - -
24.06.2017 03:00:00 10,8 6,5 - - - - - - 0,0
24.06.2017 02:00:00 10,3 7,3 - - - - - - 1,0
24.06.2017 01:00:00 10,2 7,6 - - - - - - 1,2
24.06.2017 00:00:00 10,1 7,8 - - - - - - 1,2
23.06.2017 23:00:00 12,4 5,0 - - - - - - 0,0
23.06.2017 22:00:00 12,2 5,5 - - - - - 10 0,0
23.06.2017 21:00:00 12,9 4,8 - - - - - - 0,0
23.06.2017 20:00:00 13,3 4,6 - - - - - - 0,0
23.06.2017 19:00:00 13,9 5,6 - - - - - - 0,0
23.06.2017 18:00:00 15,8 6,4 - - - - - - 0,0
23.06.2017 17:00:00 14,3 7,0 - - - - - - 0,0
23.06.2017 16:00:00 16,6 7,3 - - - - - - 0,0
23.06.2017 15:00:00 15,0 7,2 - - - - - - 0,0
23.06.2017 14:00:00 14,6 6,5 - - - - - - 0,0
23.06.2017 13:00:00 14,2 7,1 - - - - - - 0,0
23.06.2017 12:00:00 13,0 8,6 - - - - - - 0,6
23.06.2017 11:00:00 13,7 11,0 - - - - - - 0,0
23.06.2017 10:00:00 13,0 10,0 - 14,0 90 49 N 1,3 0,2
23.06.2017 09:00:00 13,4 9,6 - - - - - - 0,0
23.06.2017 08:00:00 13,0 9,8 - - - - - - 0,6
23.06.2017 07:00:00 13,7 11,9 - - - - - - 0,8
23.06.2017 06:00:00 14,4 11,8 - - - - - - 0,2
23.06.2017 05:00:00 14,0 11,8 - - - - - - 0,4
23.06.2017 04:00:00 14,1 11,4 - - - - - - 0,2
23.06.2017 03:00:00 13,9 11,0 - - - - - - 0,0
23.06.2017 02:00:00 13,5 10,9 - - - - - - 1,0
23.06.2017 01:00:00 13,4 10,7 - - - - - - 0,0
23.06.2017 00:00:00 12,8 11,0 - - - - - - 0,4
22.06.2017 23:00:00 12,7 11,2 - - - - - - 0,6
22.06.2017 22:00:00 11,9 10,7 - - - - - - 0,8
22.06.2017 21:00:00 11,8 10,7 - - - - - - 2,6
22.06.2017 20:00:00 11,9 10,5 - - - - - - 2,6
22.06.2017 19:00:00 13,7 9,8 - - - - - - 0,0
22.06.2017 18:00:00 14,3 10,1 - - - - - - 0,0
22.06.2017 17:00:00 14,3 10,4 - - - - - - 0,0
22.06.2017 16:00:00 15,9 9,8 - - - - - - 0,0
22.06.2017 15:00:00 14,8 9,5 - - - - - - 0,0
22.06.2017 14:00:00 16,4 10,0 - - - - - - 0,0
22.06.2017 13:00:00 15,4 8,9 - - - - - - 0,0
22.06.2017 12:00:00 14,8 9,5 - - - - - - 0,0
22.06.2017 11:00:00 14,9 9,5 - - - - - - 0,0
22.06.2017 10:00:00 13,2 11,5 - 14,4 37 20 N 1,0 0,0
22.06.2017 09:00:00 12,6 10,2 - - - - - - 0,0
22.06.2017 08:00:00 12,3 10,3 - - - - - - 0,0
22.06.2017 07:00:00 11,8 10,0 - - - - - - 0,0
22.06.2017 06:00:00 11,7 10,2 - - - - - - 0,0
22.06.2017 05:00:00 11,7 10,5 - - - - - - 0,0
22.06.2017 04:00:00 11,7 11,1 - - - - - - 0,2
22.06.2017 03:00:00 12,5 12,0 - - - - - - 0,0
22.06.2017 02:00:00 13,8 12,7 - - - - - - 0,0
22.06.2017 01:00:00 14,3 12,3 - - - - - - 0,0
22.06.2017 00:00:00 15,0 12,1 - - - - - - 0,0
21.06.2017 23:00:00 14,9 12,3 - - - - - - 0,0
21.06.2017 22:00:00 15,2 12,5 - - - - - - 0,0
21.06.2017 21:00:00 16,2 12,6 - - - - - - 0,0
21.06.2017 20:00:00 16,9 13,0 - - - - - - 0,0
21.06.2017 19:00:00 18,1 13,6 - - - - - - 0,0
21.06.2017 18:00:00 19,7 14,6 - - - - - - 0,0
21.06.2017 17:00:00 19,5 14,4 - - - - - - 0,0
21.06.2017 16:00:00 20,9 14,7 - - - - - - 0,2
21.06.2017 15:00:00 20,8 14,6 - - - - - - 0,0
21.06.2017 14:00:00 24,1 16,2 - - - - - - 0,0
21.06.2017 13:00:00 22,0 14,8 - - - - - - 0,0
21.06.2017 12:00:00 20,9 13,9 - - - - - - 0,0
21.06.2017 11:00:00 19,5 13,9 - - - - - - 0,0
21.06.2017 10:00:00 16,7 12,7 16,7 14,2 - - N 4,1 0,0
21.06.2017 09:00:00 15,6 11,3 - - - - - - 0,0
21.06.2017 08:00:00 14,4 10,4 - - - - - - 0,0
21.06.2017 07:00:00 13,2 10,1 - - - - - - 0,0
21.06.2017 06:00:00 12,5 9,1 - - - - - - 0,0
21.06.2017 05:00:00 12,3 9,1 - - - - - - 0,0
21.06.2017 04:00:00 12,6 9,1 - - - - - - 0,0
21.06.2017 03:00:00 9,9 8,4 - - - - - - 0,0
21.06.2017 02:00:00 12,0 8,1 - - - - - - 0,0
21.06.2017 01:00:00 12,6 8,2 - - - - - - 0,0
21.06.2017 00:00:00 13,3 7,8 - - - - - - 0,0
20.06.2017 23:00:00 13,8 7,5 - - - - - - 0,0
20.06.2017 22:00:00 14,5 8,6 - - - - - - 0,0
20.06.2017 21:00:00 15,2 8,6 - - - - - - 0,0
20.06.2017 20:00:00 16,0 8,6 - - - - - - 0,0
20.06.2017 19:00:00 16,9 9,1 - - - - - - 0,0
20.06.2017 18:00:00 17,2 9,8 - - - - - - 0,0
20.06.2017 17:00:00 17,0 8,9 - - - - - - 0,0
20.06.2017 16:00:00 17,4 9,1 - - - - - - 0,0
20.06.2017 15:00:00 16,9 8,7 - - - - - - 0,0
20.06.2017 14:00:00 16,6 7,4 - - - - - - 0,0
20.06.2017 13:00:00 15,4 8,1 - - - - - - 0,0
20.06.2017 12:00:00 14,0 6,8 - - - - - - 0,0
20.06.2017 11:00:00 13,5 8,5 - - - - - - 0,0
20.06.2017 10:00:00 12,3 8,0 12,6 13,7 - - N 6 0,0
20.06.2017 09:00:00 11,9 8,5 - - - - - - 0,0
20.06.2017 08:00:00 11,6 8,8 - - - - - - 0,0
20.06.2017 07:00:00 10,4 8,5 - - - - - - 0,0
20.06.2017 06:00:00 9,6 8,6 - - - - - - 0,0
20.06.2017 05:00:00 8,7 7,7 - - - - - - 0,0
20.06.2017 04:00:00 8,4 7,5 - - - - - - 0,0
20.06.2017 03:00:00 8,2 7,2 - - - - - - 0,0
20.06.2017 02:00:00 8,8 6,6 - - - - - - 0,0
20.06.2017 01:00:00 9,9 6,4 - - - - - - 0,0
20.06.2017 00:00:00 10,5 6,6 - - - - - - 0,0
19.06.2017 23:00:00 10,9 6,4 - - - - - - 0,0
19.06.2017 22:00:00 11,7 6,8 - - - - - - 0,0
19.06.2017 21:00:00 12,9 8,1 - - - - - - 0,0
19.06.2017 20:00:00 12,8 8,1 - - - - - - 0,0
19.06.2017 19:00:00 13,5 8,6 - - - - - - 0,0
19.06.2017 18:00:00 15,3 8,8 - - - - - - 0,0
19.06.2017 17:00:00 14,2 9,3 - - - - - - 0,0
19.06.2017 16:00:00 14,4 9,3 - - - - - - 0,0
19.06.2017 15:00:00 14,2 12,5 - - - - - - 0,2
19.06.2017 14:00:00 12,1 10,6 - - - - - - 0,0
19.06.2017 13:00:00 14,2 11,1 - - - - - - 0,0
19.06.2017 12:00:00 13,2 9,6 - - - - - - 0,0
19.06.2017 11:00:00 12,5 10,8 - - - - - - 0,6
19.06.2017 10:00:00 10,6 10,1 12,5 13,9 26 14 N 0,2 1,6
19.06.2017 09:00:00 10,3 10,0 - - - - - - 1,0
19.06.2017 08:00:00 10,2 9,9 - - - - - - 0,6
19.06.2017 07:00:00 10,9 10,4 - - - - - - 0,6
19.06.2017 06:00:00 11,2 10,5 - - - - - - 0,0
19.06.2017 05:00:00 11,2 10,4 - - - - - - 0,0
19.06.2017 04:00:00 11,2 10,2 - - - - - - 0,0
19.06.2017 03:00:00 11,7 9,8 - - - - - - 0,0
19.06.2017 02:00:00 11,7 9,8 - - - - - - 0,0
19.06.2017 01:00:00 11,9 10,0 - - - - - - 0,0
19.06.2017 00:00:00 12,3 10,0 - - - - - - 0,0
18.06.2017 23:00:00 12,4 10,1 - - - - - - 0,0
18.06.2017 22:00:00 12,5 10,1 - - - - - - 0,0
18.06.2017 21:00:00 12,6 10,2 - - - - - - 0,0
18.06.2017 20:00:00 13,2 10,3 - - - - - - 0,0
18.06.2017 19:00:00 13,4 10,6 - - - - - - 0,0
18.06.2017 18:00:00 13,8 9,9 - - - - - - 0,0
18.06.2017 17:00:00 13,6 10,0 - - - - - - 0,0
18.06.2017 16:00:00 13,3 10,7 - - - - - - 0,2
18.06.2017 15:00:00 12,9 10,3 - - - - - - 0,2
18.06.2017 14:00:00 14,5 9,5 - - - - - - 0,0
18.06.2017 13:00:00 15,7 9,3 - - - - - - 0,0
18.06.2017 12:00:00 16,9 10,6 - - - - - - 0,0
18.06.2017 11:00:00 15,1 9,4 - - - - - - 0,0
18.06.2017 10:00:00 14,7 9,1 14,7 14,0 130 70 N 2,7 0,0
18.06.2017 09:00:00 13,5 9,4 - - - - - - 0,0
18.06.2017 08:00:00 13,5 10,1 - - - - - - 0,0
18.06.2017 07:00:00 13,6 12,2 - - - - - - 0,0
18.06.2017 06:00:00 13,4 12,8 - - - - - - 0,8
18.06.2017 05:00:00 13,1 12,7 - - - - - - 0,4
18.06.2017 04:00:00 13,4 12,6 - - - - - - 0,2

tt = temperature
td = dewpoint
tt 5cm = temperature 5cm
tt -20cm = temperature -20cm
ff = wind speed
dd = wind direction
vv = visibility
rr = precipitation

Next stations